owner,sensor,date,latitude,longitude,vertical_datum,wind_speed,wind_to_direction,wind_speed_of_gust,qcFlag 
ADCP,ioos:station:wmo:42395:2,2017-12-01T00:40:00Z,26.4040,-90.7920,3.0,3.0,50.0,4.0, 
ADCP,ioos:station:wmo:42395:2,2017-12-01T02:20:00Z,26.4040,-90.7920,3.0,5.0,60.0,6.0, 
ADCP,ioos:station:wmo:42395:2,2017-12-01T03:20:00Z,26.4040,-90.7920,3.0,5.0,90.0,7.0, 
ADCP,ioos:station:wmo:42395:2,2017-12-01T04:20:00Z,26.4040,-90.7920,3.0,6.0,90.0,8.0, 
ADCP,ioos:station:wmo:42395:2,2017-12-01T05:20:00Z,26.4040,-90.7920,3.0,6.0,110.0,8.0, 
ADCP,ioos:station:wmo:42395:2,2017-12-01T06:40:00Z,26.4040,-90.7920,3.0,4.0,180.0,7.0, 
ADCP,ioos:station:wmo:42395:2,2017-12-01T07:40:00Z,26.4040,-90.7920,3.0,3.0,210.0,4.0, 
ADCP,ioos:station:wmo:42395:2,2017-12-01T09:20:00Z,26.4040,-90.7920,3.0,5.0,100.0,7.0, 
ADCP,ioos:station:wmo:42395:2,2017-12-01T10:20:00Z,26.4040,-90.7920,3.0,4.0,100.0,6.0, 
ADCP,ioos:station:wmo:42395:2,2017-12-01T11:20:00Z,26.4040,-90.7920,3.0,4.0,350.0,6.0, 
ADCP,ioos:station:wmo:42395:2,2017-12-01T12:40:00Z,26.4040,-90.7920,3.0,5.0,110.0,6.0, 
ADCP,ioos:station:wmo:42395:2,2017-12-01T13:40:00Z,26.4040,-90.7920,3.0,5.0,120.0,7.0, 
ADCP,ioos:station:wmo:42395:2,2017-12-01T15:00:00Z,26.4040,-90.7920,3.0,5.0,120.0,7.0, 
ADCP,ioos:station:wmo:42395:2,2017-12-01T16:20:00Z,26.4040,-90.7920,3.0,5.0,130.0,6.0, 
ADCP,ioos:station:wmo:42395:2,2017-12-01T17:20:00Z,26.4040,-90.7920,3.0,4.0,130.0,6.0, 
ADCP,ioos:station:wmo:42395:2,2017-12-01T18:20:00Z,26.4040,-90.7920,3.0,4.0,150.0,5.0, 
ADCP,ioos:station:wmo:42395:2,2017-12-01T19:40:00Z,26.4040,-90.7920,3.0,3.0,140.0,4.0, 
ADCP,ioos:station:wmo:42395:2,2017-12-01T20:40:00Z,26.4040,-90.7920,3.0,3.0,160.0,4.0, 
ADCP,ioos:station:wmo:42395:2,2017-12-01T22:00:00Z,26.4040,-90.7920,3.0,3.0,145.0,4.2, 
ADCP,ioos:station:wmo:42395:2,2017-12-01T23:20:00Z,26.4040,-90.7920,3.0,4.0,150.0,5.0, 
ADCP,ioos:station:wmo:42395:2,2017-12-02T00:20:00Z,26.4040,-90.7920,3.0,4.0,130.0,5.0, 
ADCP,ioos:station:wmo:42395:2,2017-12-02T01:20:00Z,26.4040,-90.7920,3.0,5.0,140.0,6.0, 
ADCP,ioos:station:wmo:42395:2,2017-12-02T02:40:00Z,26.4040,-90.7920,3.0,4.0,120.0,6.0, 
ADCP,ioos:station:wmo:42395:2,2017-12-02T03:40:00Z,26.4040,-90.7920,3.0,4.0,150.0,5.0, 
ADCP,ioos:station:wmo:42395:2,2017-12-02T05:00:00Z,26.4040,-90.7920,3.0,3.0,150.0,4.0, 
ADCP,ioos:station:wmo:42395:2,2017-12-02T06:20:00Z,26.4040,-90.7920,3.0,4.0,160.0,5.0, 
ADCP,ioos:station:wmo:42395:2,2017-12-02T07:20:00Z,26.4040,-90.7920,3.0,3.0,140.0,5.0, 
ADCP,ioos:station:wmo:42395:2,2017-12-02T08:20:00Z,26.4040,-90.7920,3.0,4.0,150.0,5.0, 
ADCP,ioos:station:wmo:42395:2,2017-12-02T09:40:00Z,26.4040,-90.7920,3.0,3.0,150.0,4.0, 
ADCP,ioos:station:wmo:42395:2,2017-12-02T10:40:00Z,26.4040,-90.7920,3.0,3.0,160.0,4.0, 
ADCP,ioos:station:wmo:42395:2,2017-12-02T12:00:00Z,26.4040,-90.7920,3.0,3.0,140.0,4.0, 
ADCP,ioos:station:wmo:42395:2,2017-12-02T13:20:00Z,26.4040,-90.7920,3.0,2.0,150.0,3.0, 
ADCP,ioos:station:wmo:42395:2,2017-12-02T14:20:00Z,26.4040,-90.7920,3.0,3.0,130.0,4.0, 
ADCP,ioos:station:wmo:42395:2,2017-12-02T15:20:00Z,26.4040,-90.7920,3.0,3.0,120.0,4.0, 
ADCP,ioos:station:wmo:42395:2,2017-12-02T16:40:00Z,26.4040,-90.7920,3.0,3.0,130.0,4.0, 
ADCP,ioos:station:wmo:42395:2,2017-12-02T17:40:00Z,26.4040,-90.7920,3.0,2.0,140.0,3.0, 
ADCP,ioos:station:wmo:42395:2,2017-12-02T19:20:00Z,26.4040,-90.7920,3.0,2.0,100.0,2.0, 
ADCP,ioos:station:wmo:42395:2,2017-12-02T20:20:00Z,26.4040,-90.7920,3.0,2.0,160.0,3.0, 
ADCP,ioos:station:wmo:42395:2,2017-12-02T21:20:00Z,26.4040,-90.7920,3.0,2.0,130.0,3.0, 
ADCP,ioos:station:wmo:42395:2,2017-12-02T22:20:00Z,26.4040,-90.7920,3.0,1.0,130.0,2.0, 
ADCP,ioos:station:wmo:42395:2,2017-12-02T23:40:00Z,26.4040,-90.7920,3.0,1.0,90.0,2.0, 
ADCP,ioos:station:wmo:42395:2,2017-12-03T00:40:00Z,26.4040,-90.7920,3.0,2.0,70.0,3.0, 
ADCP,ioos:station:wmo:42395:2,2017-12-03T02:20:00Z,26.4040,-90.7920,3.0,2.0,60.0,3.0, 
ADCP,ioos:station:wmo:42395:2,2017-12-03T03:20:00Z,26.4040,-90.7920,3.0,2.0,90.0,3.0, 
ADCP,ioos:station:wmo:42395:2,2017-12-03T04:20:00Z,26.4040,-90.7920,3.0,2.0,70.0,3.0, 
ADCP,ioos:station:wmo:42395:2,2017-12-03T05:20:00Z,26.4040,-90.7920,3.0,3.0,60.0,4.0, 
ADCP,ioos:station:wmo:42395:2,2017-12-03T06:40:00Z,26.4040,-90.7920,3.0,3.0,80.0,5.0, 
ADCP,ioos:station:wmo:42395:2,2017-12-03T08:00:00Z,26.4040,-90.7920,3.0,4.0,110.0,5.0, 
ADCP,ioos:station:wmo:42395:2,2017-12-03T09:20:00Z,26.4040,-90.7920,3.0,3.0,90.0,5.0, 
ADCP,ioos:station:wmo:42395:2,2017-12-03T10:20:00Z,26.4040,-90.7920,3.0,3.0,90.0,5.0, 
ADCP,ioos:station:wmo:42395:2,2017-12-03T11:20:00Z,26.4040,-90.7920,3.0,3.0,90.0,5.0, 
ADCP,ioos:station:wmo:42395:2,2017-12-03T12:20:00Z,26.4040,-90.7920,3.0,4.0,100.0,6.0, 
ADCP,ioos:station:wmo:42395:2,2017-12-03T13:40:00Z,26.4040,-90.7920,3.0,3.0,100.0,5.0, 
ADCP,ioos:station:wmo:42395:2,2017-12-03T15:00:00Z,26.4040,-90.7920,3.0,3.0,120.0,4.0, 
ADCP,ioos:station:wmo:42395:2,2017-12-03T16:20:00Z,26.4040,-90.7920,3.0,3.0,130.0,5.0, 
ADCP,ioos:station:wmo:42395:2,2017-12-03T17:20:00Z,26.4040,-90.7920,3.0,4.0,110.0,5.0, 
ADCP,ioos:station:wmo:42395:2,2017-12-03T18:20:00Z,26.4040,-90.7920,3.0,4.0,120.0,6.0, 
ADCP,ioos:station:wmo:42395:2,2017-12-03T19:40:00Z,26.4040,-90.7920,3.0,3.0,130.0,4.0, 
ADCP,ioos:station:wmo:42395:2,2017-12-03T20:40:00Z,26.4040,-90.7920,3.0,3.0,110.0,5.0, 
ADCP,ioos:station:wmo:42395:2,2017-12-03T22:00:00Z,26.4040,-90.7920,3.0,4.0,112.0,5.7, 
ADCP,ioos:station:wmo:42395:2,2017-12-03T23:20:00Z,26.4040,-90.7920,3.0,4.3,109.0,6.0, 
ADCP,ioos:station:wmo:42395:2,2017-12-04T00:20:00Z,26.4040,-90.7920,3.0,5.0,100.0,6.0, 
ADCP,ioos:station:wmo:42395:2,2017-12-04T01:20:00Z,26.4040,-90.7920,3.0,5.0,100.0,7.0, 
ADCP,ioos:station:wmo:42395:2,2017-12-04T02:40:00Z,26.4040,-90.7920,3.0,6.0,100.0,7.0, 
ADCP,ioos:station:wmo:42395:2,2017-12-04T03:40:00Z,26.4040,-90.7920,3.0,6.0,100.0,9.0, 
ADCP,ioos:station:wmo:42395:2,2017-12-04T05:00:00Z,26.4040,-90.7920,3.0,6.0,110.0,7.0, 
ADCP,ioos:station:wmo:42395:2,2017-12-04T06:20:00Z,26.4040,-90.7920,3.0,5.0,100.0,7.0, 
ADCP,ioos:station:wmo:42395:2,2017-12-04T07:20:00Z,26.4040,-90.7920,3.0,6.0,110.0,9.0, 
ADCP,ioos:station:wmo:42395:2,2017-12-04T08:20:00Z,26.4040,-90.7920,3.0,6.0,120.0,9.0, 
ADCP,ioos:station:wmo:42395:2,2017-12-04T09:40:00Z,26.4040,-90.7920,3.0,8.0,110.0,10.0, 
ADCP,ioos:station:wmo:42395:2,2017-12-04T10:40:00Z,26.4040,-90.7920,3.0,9.0,120.0,11.0, 
ADCP,ioos:station:wmo:42395:2,2017-12-04T12:20:00Z,26.4040,-90.7920,3.0,9.0,140.0,13.0, 
ADCP,ioos:station:wmo:42395:2,2017-12-04T13:20:00Z,26.4040,-90.7920,3.0,9.0,130.0,11.0, 
ADCP,ioos:station:wmo:42395:2,2017-12-04T13:40:00Z,26.4040,-90.7920,3.0,8.5,-9999.0,99.0, 
ADCP,ioos:station:wmo:42395:2,2017-12-04T14:20:00Z,26.4040,-90.7920,3.0,8.0,130.0,10.0, 
ADCP,ioos:station:wmo:42395:2,2017-12-04T15:20:00Z,26.4040,-90.7920,3.0,8.0,130.0,10.0, 
ADCP,ioos:station:wmo:42395:2,2017-12-04T16:40:00Z,26.4040,-90.7920,3.0,7.0,130.0,9.0, 
ADCP,ioos:station:wmo:42395:2,2017-12-04T18:00:00Z,26.4040,-90.7920,3.0,6.0,140.0,8.0, 
ADCP,ioos:station:wmo:42395:2,2017-12-04T19:20:00Z,26.4040,-90.7920,3.0,7.0,130.0,9.0, 
ADCP,ioos:station:wmo:42395:2,2017-12-04T20:20:00Z,26.4040,-90.7920,3.0,8.0,130.0,10.0, 
ADCP,ioos:station:wmo:42395:2,2017-12-04T21:20:00Z,26.4040,-90.7920,3.0,8.0,130.0,9.0, 
ADCP,ioos:station:wmo:42395:2,2017-12-04T22:20:00Z,26.4040,-90.7920,3.0,8.0,140.0,10.0, 
ADCP,ioos:station:wmo:42395:2,2017-12-04T23:40:00Z,26.4040,-90.7920,3.0,8.0,130.0,9.0, 
ADCP,ioos:station:wmo:42395:2,2017-12-05T00:40:00Z,26.4040,-90.7920,3.0,7.0,140.0,10.0, 
ADCP,ioos:station:wmo:42395:2,2017-12-05T02:20:00Z,26.4040,-90.7920,3.0,8.0,120.0,9.0, 
ADCP,ioos:station:wmo:42395:2,2017-12-05T03:20:00Z,26.4040,-90.7920,3.0,8.0,120.0,9.0, 
ADCP,ioos:station:wmo:42395:2,2017-12-05T04:20:00Z,26.4040,-90.7920,3.0,7.0,130.0,9.0, 
ADCP,ioos:station:wmo:42395:2,2017-12-05T05:20:00Z,26.4040,-90.7920,3.0,8.0,140.0,10.0, 
ADCP,ioos:station:wmo:42395:2,2017-12-05T06:40:00Z,26.4040,-90.7920,3.0,7.0,140.0,9.0, 
ADCP,ioos:station:wmo:42395:2,2017-12-05T07:40:00Z,26.4040,-90.7920,3.0,6.0,150.0,8.0, 
ADCP,ioos:station:wmo:42395:2,2017-12-05T09:20:00Z,26.4040,-90.7920,3.0,6.0,150.0,7.0, 
ADCP,ioos:station:wmo:42395:2,2017-12-05T10:20:00Z,26.4040,-90.7920,3.0,5.0,150.0,7.0, 
ADCP,ioos:station:wmo:42395:2,2017-12-05T11:20:00Z,26.4040,-90.7920,3.0,5.0,150.0,6.0, 
ADCP,ioos:station:wmo:42395:2,2017-12-05T12:20:00Z,26.4040,-90.7920,3.0,4.0,140.0,6.0, 
ADCP,ioos:station:wmo:42395:2,2017-12-05T13:40:00Z,26.4040,-90.7920,3.0,5.0,170.0,6.0, 
ADCP,ioos:station:wmo:42395:2,2017-12-05T14:40:00Z,26.4040,-90.7920,3.0,5.0,150.0,7.0, 
ADCP,ioos:station:wmo:42395:2,2017-12-05T16:20:00Z,26.4040,-90.7920,3.0,6.0,160.0,9.0, 
ADCP,ioos:station:wmo:42395:2,2017-12-05T17:20:00Z,26.4040,-90.7920,3.0,6.0,160.0,8.0, 
ADCP,ioos:station:wmo:42395:2,2017-12-05T18:20:00Z,26.4040,-90.7920,3.0,6.0,180.0,7.0, 
ADCP,ioos:station:wmo:42395:2,2017-12-05T19:40:00Z,26.4040,-90.7920,3.0,5.0,190.0,7.0, 
ADCP,ioos:station:wmo:42395:2,2017-12-05T20:40:00Z,26.4040,-90.7920,3.0,4.0,190.0,6.0, 
ADCP,ioos:station:wmo:42395:2,2017-12-05T22:00:00Z,26.4040,-90.7920,3.0,3.3,197.0,4.6, 
ADCP,ioos:station:wmo:42395:2,2017-12-05T23:20:00Z,26.4040,-90.7920,3.0,2.0,180.0,4.0, 
ADCP,ioos:station:wmo:42395:2,2017-12-06T00:20:00Z,26.4040,-90.7920,3.0,2.0,190.0,3.0, 
ADCP,ioos:station:wmo:42395:2,2017-12-06T01:20:00Z,26.4040,-90.7920,3.0,2.0,200.0,3.0, 
ADCP,ioos:station:wmo:42395:2,2017-12-06T02:40:00Z,26.4040,-90.7920,3.0,1.0,230.0,2.0, 
ADCP,ioos:station:wmo:42395:2,2017-12-06T03:40:00Z,26.4040,-90.7920,3.0,1.0,270.0,2.0, 
ADCP,ioos:station:wmo:42395:2,2017-12-06T05:00:00Z,26.4040,-90.7920,3.0,0.0,-9999.0,1.0, 
ADCP,ioos:station:wmo:42395:2,2017-12-06T06:20:00Z,26.4040,-90.7920,3.0,2.0,160.0,3.0, 
ADCP,ioos:station:wmo:42395:2,2017-12-06T07:20:00Z,26.4040,-90.7920,3.0,3.0,150.0,4.0, 
ADCP,ioos:station:wmo:42395:2,2017-12-06T08:20:00Z,26.4040,-90.7920,3.0,3.0,140.0,4.0, 
ADCP,ioos:station:wmo:42395:2,2017-12-06T09:40:00Z,26.4040,-90.7920,3.0,3.0,170.0,4.0, 
ADCP,ioos:station:wmo:42395:2,2017-12-06T10:40:00Z,26.4040,-90.7920,3.0,1.0,220.0,2.0, 
ADCP,ioos:station:wmo:42395:2,2017-12-06T12:00:00Z,26.4040,-90.7920,3.0,2.0,190.0,3.0, 
ADCP,ioos:station:wmo:42395:2,2017-12-06T13:20:00Z,26.4040,-90.7920,3.0,3.0,170.0,4.0, 
ADCP,ioos:station:wmo:42395:2,2017-12-06T14:20:00Z,26.4040,-90.7920,3.0,2.0,190.0,4.0, 
ADCP,ioos:station:wmo:42395:2,2017-12-06T15:20:00Z,26.4040,-90.7920,3.0,3.0,180.0,4.0, 
ADCP,ioos:station:wmo:42395:2,2017-12-06T16:40:00Z,26.4040,-90.7920,3.0,3.0,-9999.0,4.0, 
ADCP,ioos:station:wmo:42395:2,2017-12-06T17:40:00Z,26.4040,-90.7920,3.0,3.0,190.0,4.0, 
ADCP,ioos:station:wmo:42395:2,2017-12-06T19:20:00Z,26.4040,-90.7920,3.0,4.0,190.0,6.0, 
ADCP,ioos:station:wmo:42395:2,2017-12-06T20:20:00Z,26.4040,-90.7920,3.0,5.0,200.0,7.0, 
ADCP,ioos:station:wmo:42395:2,2017-12-06T21:20:00Z,26.4040,-90.7920,3.0,6.0,350.0,8.0, 
ADCP,ioos:station:wmo:42395:2,2017-12-06T22:20:00Z,26.4040,-90.7920,3.0,2.0,40.0,4.0, 
ADCP,ioos:station:wmo:42395:2,2017-12-06T23:40:00Z,26.4040,-90.7920,3.0,4.0,60.0,5.0, 
ADCP,ioos:station:wmo:42395:2,2017-12-07T01:00:00Z,26.4040,-90.7920,3.0,5.0,180.0,9.0, 
ADCP,ioos:station:wmo:42395:2,2017-12-07T02:20:00Z,26.4040,-90.7920,3.0,6.0,300.0,10.0, 
ADCP,ioos:station:wmo:42395:2,2017-12-07T03:20:00Z,26.4040,-90.7920,3.0,7.0,350.0,10.0, 
ADCP,ioos:station:wmo:42395:2,2017-12-07T04:20:00Z,26.4040,-90.7920,3.0,14.0,360.0,20.0, 
ADCP,ioos:station:wmo:42395:2,2017-12-07T05:20:00Z,26.4040,-90.7920,3.0,15.0,20.0,19.0, 
ADCP,ioos:station:wmo:42395:2,2017-12-07T06:40:00Z,26.4040,-90.7920,3.0,13.0,30.0,17.0, 
ADCP,ioos:station:wmo:42395:2,2017-12-07T07:40:00Z,26.4040,-90.7920,3.0,13.0,30.0,16.0, 
ADCP,ioos:station:wmo:42395:2,2017-12-07T09:20:00Z,26.4040,-90.7920,3.0,12.0,30.0,14.0, 
ADCP,ioos:station:wmo:42395:2,2017-12-07T10:20:00Z,26.4040,-90.7920,3.0,12.0,20.0,15.0, 
ADCP,ioos:station:wmo:42395:2,2017-12-07T11:20:00Z,26.4040,-90.7920,3.0,14.0,20.0,18.0, 
ADCP,ioos:station:wmo:42395:2,2017-12-07T12:20:00Z,26.4040,-90.7920,3.0,14.0,30.0,18.0, 
ADCP,ioos:station:wmo:42395:2,2017-12-07T13:40:00Z,26.4040,-90.7920,3.0,14.0,30.0,18.0, 
ADCP,ioos:station:wmo:42395:2,2017-12-07T14:40:00Z,26.4040,-90.7920,3.0,14.0,30.0,18.0, 
ADCP,ioos:station:wmo:42395:2,2017-12-07T16:20:00Z,26.4040,-90.7920,3.0,13.0,30.0,17.0, 
ADCP,ioos:station:wmo:42395:2,2017-12-07T17:20:00Z,26.4040,-90.7920,3.0,14.0,30.0,19.0, 
ADCP,ioos:station:wmo:42395:2,2017-12-07T18:20:00Z,26.4040,-90.7920,3.0,14.0,30.0,18.0, 
ADCP,ioos:station:wmo:42395:2,2017-12-07T19:40:00Z,26.4040,-90.7920,3.0,14.7,20.0,19.8, 
ADCP,ioos:station:wmo:42395:2,2017-12-07T20:40:00Z,26.4040,-90.7920,3.0,16.3,20.0,20.5, 
ADCP,ioos:station:wmo:42395:2,2017-12-07T21:40:00Z,26.4040,-90.7920,3.0,16.6,26.0,20.7, 
ADCP,ioos:station:wmo:42395:2,2017-12-07T23:20:00Z,26.4040,-90.7920,3.0,16.0,30.0,20.0, 
ADCP,ioos:station:wmo:42395:2,2017-12-08T00:20:00Z,26.4040,-90.7920,3.0,15.0,30.0,20.0, 
ADCP,ioos:station:wmo:42395:2,2017-12-08T01:20:00Z,26.4040,-90.7920,3.0,15.0,40.0,19.0, 
ADCP,ioos:station:wmo:42395:2,2017-12-08T02:40:00Z,26.4040,-90.7920,3.0,14.0,30.0,17.0, 
ADCP,ioos:station:wmo:42395:2,2017-12-08T03:40:00Z,26.4040,-90.7920,3.0,15.0,20.0,19.0, 
ADCP,ioos:station:wmo:42395:2,2017-12-08T05:00:00Z,26.4040,-90.7920,3.0,15.0,20.0,19.0, 
ADCP,ioos:station:wmo:42395:2,2017-12-08T06:20:00Z,26.4040,-90.7920,3.0,15.0,20.0,19.0, 
ADCP,ioos:station:wmo:42395:2,2017-12-08T07:20:00Z,26.4040,-90.7920,3.0,14.0,20.0,18.0, 
ADCP,ioos:station:wmo:42395:2,2017-12-08T08:20:00Z,26.4040,-90.7920,3.0,15.0,10.0,19.0, 
ADCP,ioos:station:wmo:42395:2,2017-12-08T09:40:00Z,26.4040,-90.7920,3.0,14.0,20.0,18.0, 
ADCP,ioos:station:wmo:42395:2,2017-12-08T10:40:00Z,26.4040,-90.7920,3.0,13.0,10.0,20.0, 
ADCP,ioos:station:wmo:42395:2,2017-12-08T12:00:00Z,26.4040,-90.7920,3.0,15.0,350.0,19.0, 
ADCP,ioos:station:wmo:42395:2,2017-12-08T13:20:00Z,26.4040,-90.7920,3.0,19.0,340.0,25.0, 
ADCP,ioos:station:wmo:42395:2,2017-12-08T14:20:00Z,26.4040,-90.7920,3.0,17.0,350.0,23.0, 
ADCP,ioos:station:wmo:42395:2,2017-12-08T15:20:00Z,26.4040,-90.7920,3.0,18.0,350.0,23.0, 
ADCP,ioos:station:wmo:42395:2,2017-12-08T16:40:00Z,26.4040,-90.7920,3.0,16.0,-9999.0,20.0, 
ADCP,ioos:station:wmo:42395:2,2017-12-08T17:40:00Z,26.4040,-90.7920,3.0,16.0,350.0,20.0, 
ADCP,ioos:station:wmo:42395:2,2017-12-08T19:20:00Z,26.4040,-90.7920,3.0,15.0,350.0,21.0, 
ADCP,ioos:station:wmo:42395:2,2017-12-08T20:20:00Z,26.4040,-90.7920,3.0,15.0,350.0,20.0, 
ADCP,ioos:station:wmo:42395:2,2017-12-08T21:20:00Z,26.4040,-90.7920,3.0,14.0,340.0,18.0, 
ADCP,ioos:station:wmo:42395:2,2017-12-08T22:20:00Z,26.4040,-90.7920,3.0,14.0,340.0,19.0, 
ADCP,ioos:station:wmo:42395:2,2017-12-08T23:40:00Z,26.4040,-90.7920,3.0,13.0,330.0,18.0, 
ADCP,ioos:station:wmo:42395:2,2017-12-09T00:40:00Z,26.4040,-90.7920,3.0,14.0,330.0,19.0, 
ADCP,ioos:station:wmo:42395:2,2017-12-09T02:20:00Z,26.4040,-90.7920,3.0,12.0,330.0,17.0, 
ADCP,ioos:station:wmo:42395:2,2017-12-09T03:20:00Z,26.4040,-90.7920,3.0,13.0,320.0,17.0, 
ADCP,ioos:station:wmo:42395:2,2017-12-09T04:20:00Z,26.4040,-90.7920,3.0,11.0,330.0,15.0, 
ADCP,ioos:station:wmo:42395:2,2017-12-09T05:20:00Z,26.4040,-90.7920,3.0,12.0,310.0,16.0, 
ADCP,ioos:station:wmo:42395:2,2017-12-09T07:00:00Z,26.4040,-90.7920,3.0,15.0,300.0,20.0, 
ADCP,ioos:station:wmo:42395:2,2017-12-09T07:40:00Z,26.4040,-90.7920,3.0,14.0,290.0,19.0, 
ADCP,ioos:station:wmo:42395:2,2017-12-09T09:20:00Z,26.4040,-90.7920,3.0,15.0,300.0,21.0, 
ADCP,ioos:station:wmo:42395:2,2017-12-09T10:20:00Z,26.4040,-90.7920,3.0,13.0,300.0,18.0, 
ADCP,ioos:station:wmo:42395:2,2017-12-09T11:20:00Z,26.4040,-90.7920,3.0,14.0,300.0,18.0, 
ADCP,ioos:station:wmo:42395:2,2017-12-09T12:40:00Z,26.4040,-90.7920,3.0,14.0,300.0,18.0, 
ADCP,ioos:station:wmo:42395:2,2017-12-09T13:40:00Z,26.4040,-90.7920,3.0,13.0,310.0,18.0, 
ADCP,ioos:station:wmo:42395:2,2017-12-09T14:40:00Z,26.4040,-90.7920,3.0,13.0,300.0,17.0, 
ADCP,ioos:station:wmo:42395:2,2017-12-09T16:20:00Z,26.4040,-90.7920,3.0,11.0,310.0,15.0, 
ADCP,ioos:station:wmo:42395:2,2017-12-09T17:20:00Z,26.4040,-90.7920,3.0,11.0,310.0,15.0, 
ADCP,ioos:station:wmo:42395:2,2017-12-09T18:20:00Z,26.4040,-90.7920,3.0,10.0,310.0,13.0, 
ADCP,ioos:station:wmo:42395:2,2017-12-09T19:40:00Z,26.4040,-90.7920,3.0,8.0,310.0,12.0, 
ADCP,ioos:station:wmo:42395:2,2017-12-09T20:40:00Z,26.4040,-90.7920,3.0,8.0,310.0,12.0, 
ADCP,ioos:station:wmo:42395:2,2017-12-09T21:40:00Z,26.4040,-90.7920,3.0,9.2,314.0,13.0, 
ADCP,ioos:station:wmo:42395:2,2017-12-09T23:20:00Z,26.4040,-90.7920,3.0,9.0,310.0,12.0, 
ADCP,ioos:station:wmo:42395:2,2017-12-10T00:20:00Z,26.4040,-90.7920,3.0,9.0,320.0,14.0, 
ADCP,ioos:station:wmo:42395:2,2017-12-10T01:20:00Z,26.4040,-90.7920,3.0,7.0,310.0,12.0, 
ADCP,ioos:station:wmo:42395:2,2017-12-10T02:40:00Z,26.4040,-90.7920,3.0,8.0,320.0,11.0, 
ADCP,ioos:station:wmo:42395:2,2017-12-10T03:40:00Z,26.4040,-90.7920,3.0,7.0,300.0,10.0, 
ADCP,ioos:station:wmo:42395:2,2017-12-10T05:00:00Z,26.4040,-90.7920,3.0,7.0,320.0,11.0, 
ADCP,ioos:station:wmo:42395:2,2017-12-10T06:20:00Z,26.4040,-90.7920,3.0,9.0,320.0,13.0, 
ADCP,ioos:station:wmo:42395:2,2017-12-10T07:20:00Z,26.4040,-90.7920,3.0,8.0,320.0,11.0, 
ADCP,ioos:station:wmo:42395:2,2017-12-10T08:20:00Z,26.4040,-90.7920,3.0,8.0,330.0,11.0, 
ADCP,ioos:station:wmo:42395:2,2017-12-10T09:20:00Z,26.4040,-90.7920,3.0,7.2,-9999.0,99.0, 
ADCP,ioos:station:wmo:42395:2,2017-12-10T09:40:00Z,26.4040,-90.7920,3.0,7.0,340.0,10.0, 
ADCP,ioos:station:wmo:42395:2,2017-12-10T10:40:00Z,26.4040,-90.7920,3.0,8.0,340.0,10.0, 
ADCP,ioos:station:wmo:42395:2,2017-12-10T12:20:00Z,26.4040,-90.7920,3.0,7.0,360.0,10.0, 
ADCP,ioos:station:wmo:42395:2,2017-12-10T13:20:00Z,26.4040,-90.7920,3.0,6.0,360.0,9.0, 
ADCP,ioos:station:wmo:42395:2,2017-12-10T14:20:00Z,26.4040,-90.7920,3.0,6.0,360.0,10.0, 
ADCP,ioos:station:wmo:42395:2,2017-12-10T15:20:00Z,26.4040,-90.7920,3.0,5.0,10.0,8.0, 
ADCP,ioos:station:wmo:42395:2,2017-12-10T16:40:00Z,26.4040,-90.7920,3.0,4.0,20.0,7.0, 
ADCP,ioos:station:wmo:42395:2,2017-12-10T17:40:00Z,26.4040,-90.7920,3.0,3.0,20.0,6.0, 
ADCP,ioos:station:wmo:42395:2,2017-12-10T19:20:00Z,26.4040,-90.7920,3.0,2.0,360.0,5.0, 
ADCP,ioos:station:wmo:42395:2,2017-12-10T20:20:00Z,26.4040,-90.7920,3.0,4.0,330.0,7.0, 
ADCP,ioos:station:wmo:42395:2,2017-12-10T21:20:00Z,26.4040,-90.7920,3.0,4.0,320.0,8.0, 
ADCP,ioos:station:wmo:42395:2,2017-12-10T22:20:00Z,26.4040,-90.7920,3.0,4.0,320.0,7.0, 
ADCP,ioos:station:wmo:42395:2,2017-12-10T23:40:00Z,26.4040,-90.7920,3.0,4.0,340.0,6.0, 
ADCP,ioos:station:wmo:42395:2,2017-12-11T00:40:00Z,26.4040,-90.7920,3.0,5.0,330.0,8.0, 
ADCP,ioos:station:wmo:42395:2,2017-12-11T02:20:00Z,26.4040,-90.7920,3.0,5.0,320.0,8.0, 
ADCP,ioos:station:wmo:42395:2,2017-12-11T03:20:00Z,26.4040,-90.7920,3.0,4.0,320.0,8.0, 
ADCP,ioos:station:wmo:42395:2,2017-12-11T04:20:00Z,26.4040,-90.7920,3.0,4.0,320.0,7.0, 
ADCP,ioos:station:wmo:42395:2,2017-12-11T05:20:00Z,26.4040,-90.7920,3.0,4.0,360.0,5.0, 
ADCP,ioos:station:wmo:42395:2,2017-12-11T06:40:00Z,26.4040,-90.7920,3.0,3.0,340.0,6.0, 
ADCP,ioos:station:wmo:42395:2,2017-12-11T08:00:00Z,26.4040,-90.7920,3.0,3.0,340.0,6.0, 
ADCP,ioos:station:wmo:42395:2,2017-12-11T09:20:00Z,26.4040,-90.7920,3.0,3.0,330.0,6.0, 
ADCP,ioos:station:wmo:42395:2,2017-12-11T10:20:00Z,26.4040,-90.7920,3.0,3.0,350.0,6.0, 
ADCP,ioos:station:wmo:42395:2,2017-12-11T11:20:00Z,26.4040,-90.7920,3.0,3.0,310.0,5.0, 
ADCP,ioos:station:wmo:42395:2,2017-12-11T12:40:00Z,26.4040,-90.7920,3.0,3.0,330.0,5.0, 
ADCP,ioos:station:wmo:42395:2,2017-12-11T13:40:00Z,26.4040,-90.7920,3.0,3.0,310.0,7.0, 
ADCP,ioos:station:wmo:42395:2,2017-12-11T15:00:00Z,26.4040,-90.7920,3.0,3.0,310.0,6.0, 
ADCP,ioos:station:wmo:42395:2,2017-12-11T16:20:00Z,26.4040,-90.7920,3.0,3.0,290.0,5.0, 
ADCP,ioos:station:wmo:42395:2,2017-12-11T17:20:00Z,26.4040,-90.7920,3.0,1.0,280.0,3.0, 
ADCP,ioos:station:wmo:42395:2,2017-12-11T18:20:00Z,26.4040,-90.7920,3.0,3.0,290.0,6.0, 
ADCP,ioos:station:wmo:42395:2,2017-12-11T19:40:00Z,26.4040,-90.7920,3.0,4.0,270.0,7.0, 
ADCP,ioos:station:wmo:42395:2,2017-12-11T20:40:00Z,26.4040,-90.7920,3.0,3.0,270.0,4.0, 
ADCP,ioos:station:wmo:42395:2,2017-12-11T22:00:00Z,26.4040,-90.7920,3.0,3.1,293.0,6.5, 
ADCP,ioos:station:wmo:42395:2,2017-12-11T23:20:00Z,26.4040,-90.7920,3.0,5.0,300.0,7.0, 
ADCP,ioos:station:wmo:42395:2,2017-12-12T00:20:00Z,26.4040,-90.7920,3.0,5.0,260.0,7.0, 
ADCP,ioos:station:wmo:42395:2,2017-12-12T01:20:00Z,26.4040,-90.7920,3.0,5.0,270.0,8.0, 
ADCP,ioos:station:wmo:42395:2,2017-12-12T02:40:00Z,26.4040,-90.7920,3.0,4.0,280.0,6.0, 
ADCP,ioos:station:wmo:42395:2,2017-12-12T03:40:00Z,26.4040,-90.7920,3.0,4.0,270.0,6.0, 
ADCP,ioos:station:wmo:42395:2,2017-12-12T05:20:00Z,26.4040,-90.7920,3.0,5.0,260.0,8.0, 
ADCP,ioos:station:wmo:42395:2,2017-12-12T06:20:00Z,26.4040,-90.7920,3.0,6.0,260.0,9.0, 
ADCP,ioos:station:wmo:42395:2,2017-12-12T07:20:00Z,26.4040,-90.7920,3.0,6.0,260.0,9.0, 
ADCP,ioos:station:wmo:42395:2,2017-12-12T08:20:00Z,26.4040,-90.7920,3.0,7.0,280.0,10.0, 
ADCP,ioos:station:wmo:42395:2,2017-12-12T09:40:00Z,26.4040,-90.7920,3.0,8.0,290.0,11.0, 
ADCP,ioos:station:wmo:42395:2,2017-12-12T10:40:00Z,26.4040,-90.7920,3.0,8.0,280.0,10.0, 
ADCP,ioos:station:wmo:42395:2,2017-12-12T12:20:00Z,26.4040,-90.7920,3.0,8.0,290.0,11.0, 
ADCP,ioos:station:wmo:42395:2,2017-12-12T13:20:00Z,26.4040,-90.7920,3.0,9.0,290.0,11.0, 
ADCP,ioos:station:wmo:42395:2,2017-12-12T14:20:00Z,26.4040,-90.7920,3.0,9.0,290.0,12.0, 
ADCP,ioos:station:wmo:42395:2,2017-12-12T15:20:00Z,26.4040,-90.7920,3.0,9.0,290.0,12.0, 
ADCP,ioos:station:wmo:42395:2,2017-12-12T16:40:00Z,26.4040,-90.7920,3.0,10.0,300.0,12.0, 
ADCP,ioos:station:wmo:42395:2,2017-12-12T17:40:00Z,26.4040,-90.7920,3.0,8.0,300.0,11.0, 
ADCP,ioos:station:wmo:42395:2,2017-12-12T19:20:00Z,26.4040,-90.7920,3.0,10.0,300.0,13.0, 
ADCP,ioos:station:wmo:42395:2,2017-12-12T20:20:00Z,26.4040,-90.7920,3.0,10.0,320.0,14.0, 
ADCP,ioos:station:wmo:42395:2,2017-12-12T21:20:00Z,26.4040,-90.7920,3.0,10.0,333.0,13.0, 
ADCP,ioos:station:wmo:42395:2,2017-12-12T22:20:00Z,26.4040,-90.7920,3.0,9.3,347.0,11.9, 
ADCP,ioos:station:wmo:42395:2,2017-12-12T23:40:00Z,26.4040,-90.7920,3.0,6.7,345.0,8.7, 
ADCP,ioos:station:wmo:42395:2,2017-12-13T01:00:00Z,26.4040,-90.7920,3.0,7.4,347.0,10.4, 
ADCP,ioos:station:wmo:42395:2,2017-12-13T02:20:00Z,26.4040,-90.7920,3.0,7.9,345.0,10.8, 
ADCP,ioos:station:wmo:42395:2,2017-12-13T03:20:00Z,26.4040,-90.7920,3.0,8.0,350.0,10.6, 
ADCP,ioos:station:wmo:42395:2,2017-12-13T04:20:00Z,26.4040,-90.7920,3.0,8.1,349.0,10.4, 
ADCP,ioos:station:wmo:42395:2,2017-12-13T05:40:00Z,26.4040,-90.7920,3.0,6.6,353.0,10.3, 
ADCP,ioos:station:wmo:42395:2,2017-12-13T06:40:00Z,26.4040,-90.7920,3.0,5.9,337.0,8.6, 
ADCP,ioos:station:wmo:42395:2,2017-12-13T08:00:00Z,26.4040,-90.7920,3.0,5.0,10.0,7.0, 
ADCP,ioos:station:wmo:42395:2,2017-12-13T09:20:00Z,26.4040,-90.7920,3.0,3.0,350.0,6.0, 
ADCP,ioos:station:wmo:42395:2,2017-12-13T10:20:00Z,26.4040,-90.7920,3.0,2.0,330.0,4.0, 
ADCP,ioos:station:wmo:42395:2,2017-12-13T11:20:00Z,26.4040,-90.7920,3.0,4.0,340.0,7.0, 
ADCP,ioos:station:wmo:42395:2,2017-12-13T13:00:00Z,26.4040,-90.7920,3.0,2.0,60.0,5.0, 
ADCP,ioos:station:wmo:42395:2,2017-12-13T13:40:00Z,26.4040,-90.7920,3.0,2.7,46.0,4.4, 
ADCP,ioos:station:wmo:42395:2,2017-12-13T15:20:00Z,26.4040,-90.7920,3.0,2.0,60.0,4.0, 
ADCP,ioos:station:wmo:42395:2,2017-12-13T16:20:00Z,26.4040,-90.7920,3.0,1.0,120.0,2.0, 
ADCP,ioos:station:wmo:42395:2,2017-12-13T17:20:00Z,26.4040,-90.7920,3.0,2.0,280.0,3.0, 
ADCP,ioos:station:wmo:42395:2,2017-12-13T18:20:00Z,26.4040,-90.7920,3.0,3.0,230.0,6.0, 
ADCP,ioos:station:wmo:42395:2,2017-12-13T19:40:00Z,26.4040,-90.7920,3.0,4.0,240.0,7.0, 
ADCP,ioos:station:wmo:42395:2,2017-12-13T20:40:00Z,26.4040,-90.7920,3.0,4.0,240.0,6.0, 
ADCP,ioos:station:wmo:42395:2,2017-12-13T22:20:00Z,26.4040,-90.7920,3.0,4.5,228.0,7.2, 
ADCP,ioos:station:wmo:42395:2,2017-12-13T23:20:00Z,26.4040,-90.7920,3.0,3.4,229.0,5.3, 
ADCP,ioos:station:wmo:42395:2,2017-12-14T00:20:00Z,26.4040,-90.7920,3.0,3.2,267.0,5.2, 
ADCP,ioos:station:wmo:42395:2,2017-12-14T01:20:00Z,26.4040,-90.7920,3.0,3.8,236.0,6.0, 